Las Vegas, NV

10:25 AM PDT on June 24, 2018 (GMT -0700)
McCarran International

Weather History for KLAS - February, 2014

Change the Weather History Date:

Monday, February 10, 2014

  Actual Average Record
Temperature  
Mean Temperature 61 °F 52 °F  
Max Temperature 74 °F 61 °F 78 °F (2018)
Min Temperature 48 °F 42 °F 19 °F (1946)
Degree Days  
Heating Degree Days 4 13  
Month to date heating degree days 150 140  
Since 1 July heating degree days 1314 1492  
Cooling Degree Days 0 0  
Month to date cooling degree days 0 0  
Year to date cooling degree days 0 0  
Growing Degree Days 10 (Base 50)    
Moisture  
Dew Point 31 °F    
Average Humidity 39    
Maximum Humidity 61    
Minimum Humidity 17    
Precipitation  
Precipitation 0.00 in 0.02 in 0.92 in (1982)
Month to date precipitation T 0.22  
Year to date precipitation T 0.76  
Snow  
Snow 0.00 in 0.00 in T in (1966)
Month to date snowfall 0.0 0.0  
Since 1 July snowfall 0.0 0.2  
Snow Depth 0.00 in    
Sea Level Pressure  
Sea Level Pressure 29.96 in    
Wind  
Wind Speed 7 mph (SW)    
Max Wind Speed 22 mph    
Max Gust Speed 28 mph    
Visibility 10 miles    
Events      
T = Trace of Precipitation, MM = Missing Value Source: NWS Daily Summary

Daily Weather History Graph

Daily Weather History Graph

Search for Another Location

Airport or City:

Astronomy

Feb. 10, 2014 Rise Set
Actual Time 6:33 AM PST 5:16 PM PST
Civil Twilight 6:06 AM PST 5:43 PM PST
Nautical Twilight 5:36 AM PST 6:13 PM PST
Astronomical Twilight 5:06 AM PST 6:43 PM PST
Moon 1:52 PM PST (2/10) 3:26 AM PST (2/10)
Length of Visible Light 11h 36m
Length of Day
10h 43m
Waxing Gibbous, 85% of the Moon is Illuminated
Feb 10
Waxing Gibbous
Feb 14
Full
Feb 22
Last Quarter
Mar 1
New
Mar 8
First Quarter

Hourly Weather History & Observations

Time (PST) Temp. Dew Point Humidity Pressure Visibility Wind Dir Wind Speed Gust Speed Precip Events Conditions
12:56 AM 50.0 °F 36.0 °F 59% 29.92 in 10.0 mi SSW 8.1 mph - N/A   Mostly Cloudy
1:56 AM 50.0 °F 36.0 °F 59% 29.91 in 10.0 mi WSW 5.8 mph - N/A   Mostly Cloudy
2:56 AM 50.0 °F 36.0 °F 59% 29.89 in 10.0 mi SSW 3.5 mph - N/A   Mostly Cloudy
3:56 AM 50.0 °F 36.0 °F 59% 29.91 in 10.0 mi SSW 6.9 mph - N/A   Mostly Cloudy
4:56 AM 50.0 °F 36.0 °F 59% 29.91 in 10.0 mi SSW 9.2 mph - N/A   Mostly Cloudy
5:56 AM 48.9 °F 36.0 °F 61% 29.94 in 10.0 mi SSW 5.8 mph - N/A   Mostly Cloudy
6:56 AM 48.9 °F 35.1 °F 59% 29.98 in 10.0 mi SSW 10.4 mph - N/A   Mostly Cloudy
7:56 AM 52.0 °F 35.1 °F 53% 29.99 in 10.0 mi SSW 6.9 mph - N/A   Scattered Clouds
8:56 AM 57.0 °F 36.0 °F 45% 30.00 in 10.0 mi South 8.1 mph - N/A   Scattered Clouds
9:56 AM 61.0 °F 36.0 °F 39% 30.00 in 10.0 mi SSW 8.1 mph - N/A   Scattered Clouds
10:56 AM 66.0 °F 35.1 °F 32% 29.99 in 10.0 mi Variable 3.5 mph - N/A   Scattered Clouds
11:56 AM 66.9 °F 34.0 °F 30% 29.96 in 10.0 mi SSE 4.6 mph - N/A   Scattered Clouds
12:56 PM 71.1 °F 33.1 °F 25% 29.93 in 10.0 mi Calm Calm - N/A   Scattered Clouds
1:04 PM 73.4 °F 26.6 °F 18% 29.95 in 10.0 mi NNW 13.8 mph 23.0 mph N/A   Scattered Clouds
1:56 PM 73.0 °F 26.1 °F 17% 29.91 in 10.0 mi NNW 16.1 mph 26.5 mph N/A   Partly Cloudy
2:56 PM 73.0 °F 27.0 °F 18% 29.91 in 10.0 mi NNW 9.2 mph 20.7 mph N/A   Scattered Clouds
3:56 PM 71.1 °F 27.0 °F 19% 29.91 in 10.0 mi WNW 11.5 mph 17.3 mph N/A   Scattered Clouds
4:56 PM 70.0 °F 28.0 °F 21% 29.93 in 10.0 mi NE 9.2 mph - N/A   Scattered Clouds
5:56 PM 66.9 °F 28.0 °F 23% 29.96 in 10.0 mi Calm Calm - N/A   Partly Cloudy
6:56 PM 64.0 °F 28.0 °F 26% 29.97 in 10.0 mi NNW 3.5 mph - N/A   Partly Cloudy
7:56 PM 62.1 °F 28.9 °F 29% 29.99 in 10.0 mi West 8.1 mph - N/A   Clear
8:56 PM 60.1 °F 28.0 °F 30% 30.01 in 10.0 mi NNE 3.5 mph - N/A   Clear
9:56 PM 60.1 °F 26.1 °F 27% 30.01 in 10.0 mi East 3.5 mph - N/A   Clear
10:56 PM 55.9 °F 25.0 °F 30% 30.03 in 10.0 mi East 5.8 mph - N/A   Partly Cloudy
11:56 PM 55.9 °F 25.0 °F 30% 30.03 in 10.0 mi ENE 5.8 mph - N/A   Partly Cloudy